,,,PA_Meas_PMT16A,,PR_Meas_QMR101_102,,RH_Meas_QMH101,,SR_Meas_QMS101,,TA_Meas_QMH101,,GenWind,,GenWind,
date,time,status,PA,status,PR,status,RH,status,SR,status,TA,status,DirAvg,status,SpdAvg,
2010-11-21, 00:00:05,VALID,997.948,VALID,0,VALID,89.1216,VALID,0,VALID,23.9921,VALID,54,VALID,0,
2010-11-21, 00:01:05,VALID,997.892,VALID,0,VALID,89.2971,VALID,0,VALID,23.9921,VALID,54,VALID,0,
2010-11-21, 00:02:05,VALID,997.888,VALID,0,VALID,89.4268,VALID,0,VALID,23.9921,VALID,54,VALID,0,
2010-11-21, 00:03:05,VALID,997.851,VALID,0,VALID,89.4497,VALID,0,VALID,24.0116,VALID,54,VALID,0,
2010-11-21, 00:04:05,VALID,997.842,VALID,0,VALID,89.4344,VALID,0,VALID,24.0311,VALID,54,VALID,0.0585938,
2010-11-21, 00:05:05,VALID,997.8,VALID,0,VALID,89.4115,VALID,0,VALID,24.0311,VALID,54,VALID,0.313672,
2010-11-21, 00:06:05,VALID,997.781,VALID,0,VALID,89.2513,VALID,0,VALID,24.0506,VALID,54,VALID,0.329297,
2010-11-21, 00:07:05,VALID,997.764,VALID,0,VALID,89.03,VALID,0,VALID,24.0506,VALID,54,VALID,0.387109,
2010-11-21, 00:08:05,VALID,997.782,VALID,0,VALID,88.763,VALID,0,VALID,24.0897,VALID,54,VALID,0.247656,
2010-11-21, 00:09:05,VALID,997.751,VALID,0,VALID,88.6943,VALID,0,VALID,24.0506,VALID,54,VALID,0.333203,
2010-11-21, 00:10:05,VALID,997.745,VALID,0,VALID,88.7554,VALID,0.112286,VALID,24.0701,VALID,54,VALID,0.216797,
2010-11-21, 00:11:05,VALID,997.727,VALID,0,VALID,88.8927,VALID,0,VALID,24.0701,VALID,54,VALID,0.21875,
2010-11-21, 00:12:05,VALID,997.709,VALID,0,VALID,88.8851,VALID,0.112286,VALID,24.0897,VALID,54,VALID,0.226563,
2010-11-21, 00:13:05,VALID,997.694,VALID,0,VALID,88.7706,VALID,0,VALID,24.0701,VALID,54,VALID,0.00703125,
2010-11-21, 00:14:05,VALID,997.673,VALID,0,VALID,88.702,VALID,0,VALID,24.0311,VALID,54,VALID,0.122656,
2010-11-21, 00:15:04,VALID,997.651,VALID,0,VALID,88.9309,VALID,0,VALID,24.0116,VALID,54,VALID,0.249219,
2010-11-21, 00:16:04,VALID,997.614,VALID,0,VALID,89.1445,VALID,0.112286,VALID,23.9921,VALID,54,VALID,0.384375,
2010-11-21, 00:17:04,VALID,997.596,VALID,0,VALID,89.1979,VALID,0.112286,VALID,24.0116,VALID,54,VALID,0.158594,
2010-11-21, 00:18:04,VALID,997.555,VALID,0,VALID,89.114,VALID,0,VALID,24.0116,VALID,54,VALID,0.18125,
2010-11-21, 00:19:04,VALID,997.5,VALID,0,VALID,89.114,VALID,0,VALID,24.0098,VALID,54,VALID,0.0238281,
2010-11-21, 00:20:04,VALID,997.5,VALID,0,VALID,89.1445,VALID,0.112286,VALID,24.0311,VALID,54,VALID,0,
2010-11-21, 00:21:04,VALID,997.441,VALID,0,VALID,89.1674,VALID,0,VALID,24.0116,VALID,54,VALID,0,
2010-11-21, 00:22:04,VALID,997.423,VALID,0,VALID,89.1674,VALID,0,VALID,23.9921,VALID,54,VALID,0,
2010-11-21, 00:23:04,VALID,997.399,VALID,0,VALID,89.1368,VALID,0,VALID,23.9726,VALID,54,VALID,0.449609,
2010-11-21, 00:24:04,VALID,997.38,VALID,0,VALID,89.1292,VALID,0.112286,VALID,23.9531,VALID,54,VALID,0.566016,
2010-11-21, 00:25:04,VALID,997.383,VALID,0,VALID,89.0148,VALID,0,VALID,23.9744,VALID,68,VALID,0.769922,
2010-11-21, 00:26:04,VALID,997.379,VALID,0,VALID,88.6486,VALID,0,VALID,23.9939,VALID,71,VALID,0.634766,
2010-11-21, 00:27:04,VALID,997.358,VALID,0,VALID,88.5189,VALID,0,VALID,24.0134,VALID,71,VALID,0.482812,
2010-11-21, 00:28:04,VALID,997.365,VALID,0,VALID,88.2366,VALID,0,VALID,24.0134,VALID,71,VALID,0.328906,
2010-11-21, 00:29:04,VALID,997.359,VALID,0,VALID,88.3357,VALID,0,VALID,24.0134,VALID,71,VALID,0.291016,
2010-11-21, 00:30:04,VALID,997.355,VALID,0,VALID,88.4197,VALID,0,VALID,23.9939,VALID,71,VALID,0.444531,
2010-11-21, 00:31:04,VALID,997.349,VALID,0,VALID,88.7325,VALID,0,VALID,23.9744,VALID,71,VALID,0.461328,
2010-11-21, 00:32:04,VALID,997.319,VALID,0,VALID,88.8927,VALID,0,VALID,23.9744,VALID,71,VALID,0.407422,
2010-11-21, 00:33:04,VALID,997.34,VALID,0,VALID,89.2666,VALID,0,VALID,23.9939,VALID,71,VALID,0.288281,
2010-11-21, 00:34:04,VALID,997.285,VALID,0,VALID,89.4649,VALID,0,VALID,23.9744,VALID,71,VALID,0.270312,
2010-11-21, 00:35:04,VALID,997.26,VALID,0,VALID,89.6099,VALID,0,VALID,23.9726,VALID,71,VALID,0.319531,
2010-11-21, 00:36:04,VALID,997.267,VALID,0,VALID,89.8388,VALID,0,VALID,23.9744,VALID,71,VALID,0.454297,
2010-11-21, 00:37:04,VALID,997.261,VALID,0,VALID,90.0448,VALID,0,VALID,23.9744,VALID,71,VALID,0.728516,
2010-11-21, 00:38:04,VALID,997.265,VALID,0,VALID,90.1211,VALID,0,VALID,23.9744,VALID,71,VALID,0.875,
2010-11-21, 00:39:04,VALID,997.238,VALID,0,VALID,90.1134,VALID,0,VALID,23.9726,VALID,71,VALID,1.11172,
2010-11-21, 00:40:04,VALID,997.254,VALID,0,VALID,90.0829,VALID,0,VALID,23.9744,VALID,71,VALID,1.10469,
2010-11-21, 00:41:04,VALID,997.254,VALID,0,VALID,89.8769,VALID,0,VALID,23.9744,VALID,71,VALID,1.16602,
2010-11-21, 00:42:04,VALID,997.254,VALID,0,VALID,89.7091,VALID,0,VALID,23.914,VALID,71,VALID,1.16953,
2010-11-21, 00:43:04,VALID,997.241,VALID,0,VALID,89.6709,VALID,0,VALID,23.8768,VALID,71,VALID,0.988672,
2010-11-21, 00:44:04,VALID,997.28,VALID,0,VALID,89.648,VALID,0,VALID,23.797,VALID,71,VALID,0.889844,
2010-11-21, 00:45:04,VALID,997.272,VALID,0,VALID,89.648,VALID,0,VALID,23.7793,VALID,67,VALID,1.01484,
2010-11-21, 00:46:04,VALID,997.279,VALID,0,VALID,89.732,VALID,0,VALID,23.7597,VALID,67,VALID,0.953125,
2010-11-21, 00:47:04,VALID,997.291,VALID,0,VALID,89.8235,VALID,0,VALID,23.7207,VALID,67,VALID,0.913281,
2010-11-21, 00:48:04,VALID,997.265,VALID,0,VALID,89.9609,VALID,0,VALID,23.6817,VALID,67,VALID,0.691797,
2010-11-21, 00:49:04,VALID,997.254,VALID,0,VALID,90.06,VALID,0,VALID,23.6622,VALID,67,VALID,0.554688,
2010-11-21, 00:50:04,VALID,997.251,VALID,0,VALID,90.2279,VALID,0,VALID,23.6427,VALID,67,VALID,0.579297,
2010-11-21, 00:51:04,VALID,997.24,VALID,0,VALID,90.2813,VALID,0,VALID,23.6019,VALID,67,VALID,0.301953,
2010-11-21, 00:52:04,VALID,997.244,VALID,0,VALID,90.35,VALID,0,VALID,23.5841,VALID,67,VALID,0.467578,
2010-11-21, 00:53:04,VALID,997.26,VALID,0,VALID,90.4186,VALID,0,VALID,23.5646,VALID,67,VALID,0.450391,
2010-11-21, 00:54:04,VALID,997.217,VALID,0,VALID,90.5865,VALID,0,VALID,23.5646,VALID,67,VALID,0.454297,
2010-11-21, 00:55:04,VALID,997.22,VALID,0,VALID,90.7238,VALID,0,VALID,23.5646,VALID,67,VALID,0.371094,
2010-11-21, 00:56:04,VALID,997.191,VALID,0,VALID,90.7772,VALID,0,VALID,23.5841,VALID,67,VALID,0.3,
2010-11-21, 00:57:04,VALID,997.186,VALID,0,VALID,90.7696,VALID,0,VALID,23.5646,VALID,67,VALID,0.200781,
2010-11-21, 00:58:04,VALID,997.134,VALID,0,VALID,90.7162,VALID,0,VALID,23.5646,VALID,67,VALID,0.225391,
2010-11-21, 00:59:04,VALID,997.097,VALID,0,VALID,90.7085,VALID,0,VALID,23.5646,VALID,67,VALID,0.199609,
2010-11-21, 01:00:04,VALID,997.1,VALID,0,VALID,90.7162,VALID,0,VALID,23.5256,VALID,67,VALID,0.360156,
2010-11-21, 01:01:04,VALID,997.05,VALID,0,VALID,90.7849,VALID,0,VALID,23.5451,VALID,67,VALID,0.522656,
2010-11-21, 01:02:04,VALID,997.015,VALID,0,VALID,90.8154,VALID,0,VALID,23.5646,VALID,67,VALID,0.495703,
2010-11-21, 01:03:04,VALID,997.015,VALID,0,VALID,90.8077,VALID,0,VALID,23.6054,VALID,67,VALID,0.566797,
2010-11-21, 01:04:04,VALID,996.969,VALID,0,VALID,90.8154,VALID,0,VALID,23.5646,VALID,67,VALID,0.624609,
2010-11-21, 01:05:04,VALID,996.938,VALID,0,VALID,90.7543,VALID,0,VALID,23.5841,VALID,67,VALID,0.587109,
2010-11-21, 01:06:04,VALID,996.925,VALID,0,VALID,90.6628,VALID,0,VALID,23.5646,VALID,67,VALID,0.561719,
2010-11-21, 01:07:04,VALID,996.892,VALID,0,VALID,90.617,VALID,0,VALID,23.5841,VALID,90,VALID,0.55,
2010-11-21, 01:08:04,VALID,996.89,VALID,0,VALID,90.5788,VALID,0,VALID,23.5451,VALID,90,VALID,0.355078,
2010-11-21, 01:09:04,VALID,996.854,VALID,0,VALID,90.5636,VALID,0,VALID,23.5451,VALID,107,VALID,0.471484,
2010-11-21, 01:10:04,VALID,996.831,VALID,0,VALID,90.6323,VALID,0,VALID,23.5451,VALID,107,VALID,0.463281,
2010-11-21, 01:11:04,VALID,996.796,VALID,0,VALID,90.7391,VALID,0,VALID,23.5646,VALID,107,VALID,0.505469,
2010-11-21, 01:12:04,VALID,996.743,VALID,0,VALID,90.8154,VALID,0,VALID,23.5646,VALID,107,VALID,0.549219,
2010-11-21, 01:13:04,VALID,996.753,VALID,0,VALID,90.8611,VALID,0,VALID,23.5646,VALID,107,VALID,0.396484,
2010-11-21, 01:14:04,VALID,996.745,VALID,0,VALID,90.884,VALID,0,VALID,23.5859,VALID,107,VALID,0.264062,
2010-11-21, 01:15:04,VALID,996.695,VALID,0,VALID,90.9374,VALID,0,VALID,23.5859,VALID,107,VALID,0.140625,
2010-11-21, 01:16:04,VALID,996.698,VALID,0,VALID,90.9451,VALID,0,VALID,23.5646,VALID,107,VALID,0,
2010-11-21, 01:17:04,VALID,996.71,VALID,0,VALID,90.8993,VALID,0,VALID,23.5451,VALID,107,VALID,0,
2010-11-21, 01:18:04,VALID,996.7,VALID,0,VALID,90.8764,VALID,0,VALID,23.5256,VALID,107,VALID,0,
2010-11-21, 01:19:04,VALID,996.706,VALID,0,VALID,90.884,VALID,0,VALID,23.5256,VALID,107,VALID,0.0445312,
2010-11-21, 01:20:04,VALID,996.701,VALID,0,VALID,90.8993,VALID,0,VALID,23.5256,VALID,107,VALID,0,
2010-11-21, 01:21:04,VALID,996.712,VALID,0,VALID,90.8611,VALID,0,VALID,23.5061,VALID,107,VALID,0,
2010-11-21, 01:22:04,VALID,996.655,VALID,0,VALID,90.8077,VALID,0,VALID,23.4866,VALID,107,VALID,0,
2010-11-21, 01:23:04,VALID,996.656,VALID,0,VALID,90.762,VALID,0,VALID,23.4671,VALID,107,VALID,0,
2010-11-21, 01:24:04,VALID,996.628,VALID,0,VALID,90.762,VALID,0,VALID,23.4458,VALID,107,VALID,0,
2010-11-21, 01:25:04,VALID,996.606,VALID,0,VALID,90.7849,VALID,0,VALID,23.4263,VALID,107,VALID,0,
2010-11-21, 01:26:04,VALID,996.61,VALID,0,VALID,90.8459,VALID,0,VALID,23.4067,VALID,107,VALID,0,
2010-11-21, 01:27:04,VALID,996.601,VALID,0,VALID,90.9527,VALID,0,VALID,23.3872,VALID,107,VALID,0,
2010-11-21, 01:28:04,VALID,996.57,VALID,0,VALID,91.09,VALID,0,VALID,23.3872,VALID,107,VALID,0,
2010-11-21, 01:29:04,VALID,996.528,VALID,0,VALID,91.1282,VALID,0.112286,VALID,23.3677,VALID,107,VALID,0.436328,
2010-11-21, 01:30:04,VALID,996.492,VALID,0,VALID,91.2426,VALID,0,VALID,23.3677,VALID,107,VALID,0.392578,
2010-11-21, 01:31:04,VALID,996.475,VALID,0,VALID,91.2579,VALID,0,VALID,23.4067,VALID,107,VALID,0.542188,
2010-11-21, 01:32:04,VALID,996.443,VALID,0,VALID,91.1968,VALID,0,VALID,23.4067,VALID,107,VALID,0.484766,
2010-11-21, 01:33:04,VALID,996.453,VALID,0,VALID,91.1206,VALID,0,VALID,23.4263,VALID,107,VALID,0.376563,
2010-11-21, 01:34:04,VALID,996.443,VALID,0,VALID,90.9832,VALID,0,VALID,23.4263,VALID,107,VALID,0.170312,
2010-11-21, 01:35:04,VALID,996.452,VALID,0,VALID,90.8535,VALID,0,VALID,23.4067,VALID,107,VALID,0.256641,
2010-11-21, 01:36:04,VALID,996.494,VALID,0,VALID,90.7543,VALID,0,VALID,23.4085,VALID,107,VALID,0.0417969,
2010-11-21, 01:37:04,VALID,996.488,VALID,0,VALID,90.678,VALID,0.112286,VALID,23.3677,VALID,107,VALID,0.192188,
2010-11-21, 01:38:04,VALID,996.491,VALID,0,VALID,90.6704,VALID,0,VALID,23.3677,VALID,107,VALID,0.266016,
2010-11-21, 01:39:04,VALID,996.514,VALID,0,VALID,90.8077,VALID,0,VALID,23.389,VALID,107,VALID,0.330469,
2010-11-21, 01:40:04,VALID,996.545,VALID,0,VALID,90.9756,VALID,0,VALID,23.4493,VALID,107,VALID,0.395312,
2010-11-21, 01:41:04,VALID,996.553,VALID,0,VALID,91.0671,VALID,0,VALID,23.4475,VALID,107,VALID,0.409375,
2010-11-21, 01:42:04,VALID,996.571,VALID,0,VALID,91.029,VALID,0,VALID,23.4866,VALID,107,VALID,0.444141,
2010-11-21, 01:43:04,VALID,996.609,VALID,0,VALID,90.9451,VALID,0,VALID,23.5451,VALID,107,VALID,0.414453,
2010-11-21, 01:44:04,VALID,996.643,VALID,0,VALID,90.7925,VALID,0,VALID,23.5451,VALID,107,VALID,0.398828,
2010-11-21, 01:45:04,VALID,996.639,VALID,0,VALID,90.5865,VALID,0,VALID,23.5841,VALID,107,VALID,0.546875,
2010-11-21, 01:46:04,VALID,996.641,VALID,0,VALID,90.4644,VALID,0,VALID,23.6036,VALID,107,VALID,0.636328,
2010-11-21, 01:47:04,VALID,996.649,VALID,0,VALID,90.2126,VALID,0,VALID,23.6232,VALID,107,VALID,0.534375,
2010-11-21, 01:48:04,VALID,996.654,VALID,0,VALID,90.0143,VALID,0,VALID,23.6427,VALID,107,VALID,0.475,
2010-11-21, 01:49:04,VALID,996.655,VALID,0,VALID,89.8693,VALID,0,VALID,23.6427,VALID,107,VALID,0.314063,
2010-11-21, 01:50:04,VALID,996.615,VALID,0,VALID,89.6557,VALID,0,VALID,23.6622,VALID,107,VALID,0.23125,
2010-11-21, 01:51:04,VALID,996.622,VALID,0,VALID,89.5717,VALID,0,VALID,23.664,VALID,107,VALID,0.225,
2010-11-21, 01:52:04,VALID,996.584,VALID,0,VALID,89.4573,VALID,0,VALID,23.6835,VALID,107,VALID,0.19375,
2010-11-21, 01:53:04,VALID,996.57,VALID,0,VALID,89.381,VALID,0,VALID,23.6835,VALID,107,VALID,0.341406,
2010-11-21, 01:54:04,VALID,996.555,VALID,0,VALID,89.4115,VALID,0,VALID,23.6835,VALID,107,VALID,0.473437,
2010-11-21, 01:55:04,VALID,996.568,VALID,0,VALID,89.6786,VALID,0,VALID,23.7012,VALID,107,VALID,0.527734,
2010-11-21, 01:56:04,VALID,996.543,VALID,0,VALID,89.8693,VALID,0,VALID,23.7012,VALID,107,VALID,0.473047,
2010-11-21, 01:57:04,VALID,996.541,VALID,0,VALID,89.9456,VALID,0,VALID,23.7012,VALID,107,VALID,0.358984,
2010-11-21, 01:58:04,VALID,996.506,VALID,0,VALID,89.8235,VALID,0,VALID,23.6817,VALID,107,VALID,0.528516,
2010-11-21, 01:59:04,VALID,996.506,VALID,0,VALID,89.5794,VALID,0,VALID,23.6427,VALID,107,VALID,0.421094,
2010-11-21, 02:00:04,VALID,996.49,VALID,0,VALID,89.3581,VALID,0,VALID,23.6036,VALID,107,VALID,0.382813,
2010-11-21, 02:01:04,VALID,996.447,VALID,0,VALID,89.3963,VALID,0,VALID,23.5841,VALID,107,VALID,0.229297,
2010-11-21, 02:02:04,VALID,996.454,VALID,0,VALID,89.5107,VALID,0,VALID,23.5646,VALID,107,VALID,0.110547,
2010-11-21, 02:03:04,VALID,996.439,VALID,0,VALID,89.5489,VALID,0,VALID,23.5256,VALID,107,VALID,0.26875,
2010-11-21, 02:04:04,VALID,996.423,VALID,0,VALID,89.6175,VALID,0,VALID,23.5256,VALID,107,VALID,0,
2010-11-21, 02:05:04,VALID,996.387,VALID,0,VALID,89.7167,VALID,0,VALID,23.4866,VALID,107,VALID,0.223438,
2010-11-21, 02:06:04,VALID,996.363,VALID,0,VALID,89.8617,VALID,0,VALID,23.4866,VALID,107,VALID,0.339453,
2010-11-21, 02:07:04,VALID,996.368,VALID,0,VALID,89.9532,VALID,0,VALID,23.4671,VALID,107,VALID,0.501953,
2010-11-21, 02:08:04,VALID,996.385,VALID,0,VALID,90.0066,VALID,0,VALID,23.4475,VALID,139,VALID,0.943359,
2010-11-21, 02:09:04,VALID,996.369,VALID,0,VALID,89.8388,VALID,0,VALID,23.4493,VALID,148,VALID,0.965625,
2010-11-21, 02:10:04,VALID,996.344,VALID,0,VALID,89.2971,VALID,0,VALID,23.3695,VALID,153,VALID,1.24023,
2010-11-21, 02:11:04,VALID,996.369,VALID,0,VALID,88.9843,VALID,0,VALID,23.3695,VALID,165,VALID,1.34297,
2010-11-21, 02:12:04,VALID,996.363,VALID,0,VALID,88.8622,VALID,0,VALID,23.3695,VALID,176,VALID,1.44336,
2010-11-21, 02:13:04,VALID,996.378,VALID,0,VALID,88.8698,VALID,0,VALID,23.428,VALID,171,VALID,1.57266,
2010-11-21, 02:14:04,VALID,996.373,VALID,0,VALID,88.8622,VALID,0,VALID,23.4475,VALID,169,VALID,1.41875,
2010-11-21, 02:15:04,VALID,996.341,VALID,0,VALID,89.0453,VALID,0,VALID,23.4884,VALID,172,VALID,1.46875,
2010-11-21, 02:16:04,VALID,996.315,VALID,0,VALID,88.9461,VALID,0,VALID,23.4671,VALID,165,VALID,1.4293,
2010-11-21, 02:17:04,VALID,996.324,VALID,0,VALID,88.7859,VALID,0,VALID,23.4866,VALID,164,VALID,1.16484,
2010-11-21, 02:18:04,VALID,996.297,VALID,0,VALID,88.6791,VALID,0,VALID,23.4671,VALID,171,VALID,1.0625,
2010-11-21, 02:19:04,VALID,996.287,VALID,0,VALID,88.412,VALID,0,VALID,23.4671,VALID,182,VALID,1.32969,
2010-11-21, 02:20:04,VALID,996.274,VALID,0,VALID,88.2442,VALID,0,VALID,23.4671,VALID,179,VALID,1.25352,
2010-11-21, 02:21:04,VALID,996.266,VALID,0,VALID,88.1297,VALID,0,VALID,23.4866,VALID,179,VALID,1.0293,
2010-11-21, 02:22:04,VALID,996.281,VALID,0,VALID,87.9543,VALID,0,VALID,23.4671,VALID,174,VALID,0.887109,
2010-11-21, 02:23:04,VALID,996.257,VALID,0,VALID,87.9466,VALID,0,VALID,23.4671,VALID,174,VALID,0.709375,
2010-11-21, 02:24:04,VALID,996.224,VALID,0,VALID,88,VALID,0,VALID,23.4475,VALID,164,VALID,1.16641,
2010-11-21, 02:25:04,VALID,996.222,VALID,0,VALID,87.9848,VALID,0,VALID,23.428,VALID,164,VALID,0.865234,
2010-11-21, 02:26:04,VALID,996.224,VALID,0,VALID,87.9771,VALID,0,VALID,23.428,VALID,164,VALID,0.666797,
2010-11-21, 02:27:04,VALID,996.206,VALID,0,VALID,87.9085,VALID,0,VALID,23.428,VALID,164,VALID,0.678906,
2010-11-21, 02:28:04,VALID,996.199,VALID,0,VALID,87.8398,VALID,0,VALID,23.4085,VALID,164,VALID,0.774609,
2010-11-21, 02:29:04,VALID,996.198,VALID,0,VALID,87.8856,VALID,0,VALID,23.389,VALID,164,VALID,0.597656,
2010-11-21, 02:30:04,VALID,996.185,VALID,0,VALID,87.9314,VALID,0,VALID,23.389,VALID,158,VALID,0.753906,
2010-11-21, 02:31:04,VALID,996.188,VALID,0,VALID,87.9924,VALID,0,VALID,23.3695,VALID,141,VALID,0.953516,
2010-11-21, 02:32:04,VALID,996.139,VALID,0,VALID,88.084,VALID,0,VALID,23.3695,VALID,141,VALID,0.93125,
2010-11-21, 02:33:04,VALID,996.129,VALID,0,VALID,88.2518,VALID,0,VALID,23.3695,VALID,141,VALID,0.896094,
2010-11-21, 02:34:04,VALID,996.112,VALID,0,VALID,88.1679,VALID,0,VALID,23.35,VALID,136,VALID,0.846875,
2010-11-21, 02:35:04,VALID,996.073,VALID,0,VALID,88.1526,VALID,0,VALID,23.3323,VALID,121,VALID,0.926953,
2010-11-21, 02:36:04,VALID,996.093,VALID,0,VALID,88.1984,VALID,0,VALID,23.2915,VALID,117,VALID,0.985547,
2010-11-21, 02:37:04,VALID,996.099,VALID,0,VALID,88.351,VALID,0,VALID,23.2524,VALID,113,VALID,1.00781,
2010-11-21, 02:38:04,VALID,996.07,VALID,0,VALID,88.6943,VALID,0,VALID,23.2134,VALID,108,VALID,0.841406,
2010-11-21, 02:39:04,VALID,996.083,VALID,0,VALID,88.9614,VALID,0,VALID,23.1762,VALID,92,VALID,0.562109,
2010-11-21, 02:40:04,VALID,996.084,VALID,0,VALID,89.3428,VALID,0,VALID,23.1354,VALID,92,VALID,0.654297,
2010-11-21, 02:41:04,VALID,996.071,VALID,0,VALID,89.6938,VALID,0,VALID,23.1159,VALID,92,VALID,0.409375,
2010-11-21, 02:42:04,VALID,996.086,VALID,0,VALID,89.8846,VALID,0,VALID,23.0769,VALID,92,VALID,0.382422,
2010-11-21, 02:43:04,VALID,996.084,VALID,0,VALID,89.8922,VALID,0,VALID,23.0573,VALID,92,VALID,0.307031,
2010-11-21, 02:44:04,VALID,996.07,VALID,0,VALID,89.9685,VALID,0,VALID,23.0183,VALID,92,VALID,0.457812,
2010-11-21, 02:45:04,VALID,996.068,VALID,0,VALID,90.1974,VALID,0,VALID,23.0183,VALID,92,VALID,0.399219,
2010-11-21, 02:46:04,VALID,996.034,VALID,0,VALID,90.3576,VALID,0,VALID,22.9581,VALID,92,VALID,0.373828,
2010-11-21, 02:47:04,VALID,996.018,VALID,0,VALID,90.5788,VALID,0,VALID,22.9598,VALID,92,VALID,0.26875,
2010-11-21, 02:48:04,VALID,996.015,VALID,0,VALID,90.7085,VALID,0,VALID,22.9403,VALID,92,VALID,0.192578,
2010-11-21, 02:49:04,VALID,995.997,VALID,0,VALID,90.8459,VALID,0,VALID,22.9208,VALID,92,VALID,0,
2010-11-21, 02:50:04,VALID,996.039,VALID,0,VALID,90.9146,VALID,0,VALID,22.8605,VALID,92,VALID,0,
2010-11-21, 02:51:04,VALID,995.984,VALID,0,VALID,90.9909,VALID,0,VALID,22.8623,VALID,92,VALID,0,
2010-11-21, 02:52:04,VALID,996.024,VALID,0,VALID,91.0137,VALID,0,VALID,22.8445,VALID,92,VALID,0,
2010-11-21, 02:53:04,VALID,996.008,VALID,0,VALID,91.09,VALID,0,VALID,22.7825,VALID,92,VALID,0,
2010-11-21, 02:54:04,VALID,996.036,VALID,0,VALID,91.2579,VALID,0,VALID,22.7825,VALID,92,VALID,0,
2010-11-21, 02:55:04,VALID,996.052,VALID,0,VALID,91.4105,VALID,0,VALID,22.802,VALID,92,VALID,0.176953,
2010-11-21, 02:56:04,VALID,996.033,VALID,0,VALID,91.5097,VALID,0,VALID,22.8037,VALID,92,VALID,0.1875,
2010-11-21, 02:57:04,VALID,996.06,VALID,0,VALID,91.6165,VALID,0,VALID,22.7842,VALID,92,VALID,0.308594,
2010-11-21, 02:58:04,VALID,996.083,VALID,0,VALID,91.6851,VALID,0,VALID,22.8037,VALID,92,VALID,0.323438,
2010-11-21, 02:59:04,VALID,996.064,VALID,0,VALID,91.7691,VALID,0,VALID,22.8037,VALID,92,VALID,0.301562,
2010-11-21, 03:00:04,VALID,996.062,VALID,0,VALID,91.8301,VALID,0,VALID,22.802,VALID,92,VALID,0.236328,
2010-11-21, 03:01:04,VALID,996.063,VALID,0,VALID,91.8835,VALID,0,VALID,22.8427,VALID,92,VALID,0.251563,
2010-11-21, 03:02:04,VALID,996.058,VALID,0,VALID,91.9293,VALID,0,VALID,22.8623,VALID,92,VALID,0.253516,
2010-11-21, 03:03:04,VALID,996.045,VALID,0,VALID,91.9674,VALID,0,VALID,22.841,VALID,92,VALID,0.180469,
2010-11-21, 03:04:04,VALID,996.044,VALID,0,VALID,91.9674,VALID,0,VALID,22.8623,VALID,92,VALID,0.276172,
2010-11-21, 03:05:04,VALID,996.045,VALID,0,VALID,91.9369,VALID,0,VALID,22.841,VALID,92,VALID,0.434766,
2010-11-21, 03:06:04,VALID,996.043,VALID,0,VALID,91.8454,VALID,0,VALID,22.8427,VALID,92,VALID,0.353906,
2010-11-21, 03:07:04,VALID,996.019,VALID,0,VALID,91.8072,VALID,0,VALID,22.8427,VALID,92,VALID,0.474609,
2010-11-21, 03:08:04,VALID,996.02,VALID,0,VALID,91.7385,VALID,0,VALID,22.8623,VALID,113,VALID,0.759375,
2010-11-21, 03:09:04,VALID,996.052,VALID,0,VALID,91.6394,VALID,0,VALID,22.8605,VALID,124,VALID,0.779297,
2010-11-21, 03:10:04,VALID,996.064,VALID,0,VALID,91.441,VALID,0,VALID,22.9208,VALID,124,VALID,0.653125,
2010-11-21, 03:11:04,VALID,996.078,VALID,0,VALID,91.1892,VALID,0,VALID,22.9385,VALID,126,VALID,0.422656,
2010-11-21, 03:12:04,VALID,996.08,VALID,0,VALID,90.9222,VALID,0,VALID,22.9581,VALID,126,VALID,0.388281,
2010-11-21, 03:13:04,VALID,996.112,VALID,0,VALID,90.7162,VALID,0,VALID,22.9971,VALID,126,VALID,0.290234,
2010-11-21, 03:14:04,VALID,996.108,VALID,0,VALID,90.5483,VALID,0,VALID,22.9988,VALID,132,VALID,0.472266,
2010-11-21, 03:15:04,VALID,996.122,VALID,0,VALID,90.3881,VALID,0,VALID,22.9793,VALID,133,VALID,0.525391,
2010-11-21, 03:16:04,VALID,996.081,VALID,0,VALID,90.3042,VALID,0,VALID,22.9776,VALID,143,VALID,0.419141,
2010-11-21, 03:17:04,VALID,996.086,VALID,0,VALID,90.1821,VALID,0,VALID,22.9581,VALID,143,VALID,0.322656,
2010-11-21, 03:18:04,VALID,996.058,VALID,0,VALID,90.0295,VALID,0,VALID,22.9598,VALID,143,VALID,0.477734,
2010-11-21, 03:19:04,VALID,996.061,VALID,0,VALID,89.8617,VALID,0,VALID,22.9403,VALID,143,VALID,0.677734,
2010-11-21, 03:20:04,VALID,996.049,VALID,0,VALID,89.732,VALID,0,VALID,22.9208,VALID,153,VALID,0.881641,
2010-11-21, 03:21:04,VALID,996.017,VALID,0,VALID,89.7243,VALID,0,VALID,22.8995,VALID,141,VALID,0.925781,
2010-11-21, 03:22:04,VALID,995.994,VALID,0,VALID,89.6633,VALID,0,VALID,22.9013,VALID,146,VALID,1.04219,
2010-11-21, 03:23:04,VALID,995.945,VALID,0,VALID,89.5412,VALID,0,VALID,22.88,VALID,138,VALID,1.16367,
2010-11-21, 03:24:04,VALID,995.943,VALID,0,VALID,89.3505,VALID,0,VALID,22.8818,VALID,132,VALID,0.967188,
2010-11-21, 03:25:04,VALID,995.944,VALID,0,VALID,89.2742,VALID,0,VALID,22.8623,VALID,121,VALID,0.751953,
2010-11-21, 03:26:04,VALID,995.942,VALID,0,VALID,89.2666,VALID,0,VALID,22.8427,VALID,119,VALID,0.3625,
2010-11-21, 03:27:04,VALID,995.94,VALID,0,VALID,89.4268,VALID,0,VALID,22.8232,VALID,119,VALID,0.360156,
2010-11-21, 03:28:04,VALID,995.922,VALID,0,VALID,89.6709,VALID,0,VALID,22.8037,VALID,119,VALID,0.3125,
2010-11-21, 03:29:04,VALID,995.949,VALID,0,VALID,89.8998,VALID,0,VALID,22.7842,VALID,41,VALID,0.56875,
2010-11-21, 03:30:04,VALID,995.933,VALID,0,VALID,89.9685,VALID,0,VALID,22.7452,VALID,33,VALID,0.269922,
2010-11-21, 03:31:04,VALID,995.958,VALID,0,VALID,90.1058,VALID,0,VALID,22.7452,VALID,17,VALID,0.518359,
2010-11-21, 03:32:04,VALID,995.995,VALID,0,VALID,90.2584,VALID,0,VALID,22.7257,VALID,17,VALID,0.752344,
2010-11-21, 03:33:04,VALID,996.001,VALID,0,VALID,90.4797,VALID,0,VALID,22.685,VALID,17,VALID,0.619531,
2010-11-21, 03:34:04,VALID,996.005,VALID,0,VALID,90.6628,VALID,0,VALID,22.7062,VALID,17,VALID,0.514844,
2010-11-21, 03:35:04,VALID,996.001,VALID,0,VALID,90.8001,VALID,0,VALID,22.6867,VALID,17,VALID,0.471094,
2010-11-21, 03:36:04,VALID,996.007,VALID,0,VALID,90.9527,VALID,0,VALID,22.6867,VALID,17,VALID,0.623828,
2010-11-21, 03:37:04,VALID,996.026,VALID,0,VALID,91.1129,VALID,0,VALID,22.6672,VALID,17,VALID,0.678906,
2010-11-21, 03:38:04,VALID,996.039,VALID,0,VALID,91.1816,VALID,0,VALID,22.6477,VALID,17,VALID,0.703516,
2010-11-21, 03:39:04,VALID,996.055,VALID,0,VALID,91.2731,VALID,0,VALID,22.6477,VALID,17,VALID,0.79375,
2010-11-21, 03:40:04,VALID,996.078,VALID,0,VALID,91.4639,VALID,0,VALID,22.6282,VALID,17,VALID,0.894531,
2010-11-21, 03:41:04,VALID,996.107,VALID,0,VALID,91.647,VALID,0,VALID,22.6264,VALID,15,VALID,0.840625,
2010-11-21, 03:42:04,VALID,996.11,VALID,0,VALID,91.7462,VALID,0,VALID,22.6282,VALID,352,VALID,0.772266,
2010-11-21, 03:43:04,VALID,996.161,VALID,0,VALID,91.7691,VALID,0,VALID,22.6087,VALID,352,VALID,0.801562,
2010-11-21, 03:44:04,VALID,996.188,VALID,0,VALID,91.7996,VALID,0,VALID,22.5892,VALID,352,VALID,0.719531,
2010-11-21, 03:45:04,VALID,996.2,VALID,0,VALID,91.7767,VALID,0,VALID,22.5501,VALID,352,VALID,0.471094,
2010-11-21, 03:46:04,VALID,996.23,VALID,0,VALID,91.7157,VALID,0,VALID,22.4899,VALID,352,VALID,0.596094,
2010-11-21, 03:47:04,VALID,996.282,VALID,0,VALID,91.6623,VALID,0,VALID,22.4509,VALID,352,VALID,0.632031,